Location: Chevoux
(46.3801°N, 4.9476°E)
Time: 22:40:52
(UTC+00:00)

USA 229 - Pass Details

Date: 28 January 2021
Orbit: 964 x 1248 km, 63.4° (Epoch: 03 March)

Event Time Altitude Azimuth Distance (km) Brightness Sun altitude
Rises 17:23:25 0° 320° (NW) 3,942 7.0 -8.0°
Reaches altitude 10° 17:26:03 10° 323° (NW) 3,021 6.3 -8.4°
Maximum altitude 17:33:20 75° 49° (NE) 1,228 3.9 -9.6°
Drops below altitude 10° 17:41:02 10° 134° (SE) 3,182 5.9 -10.9°
Sets 17:43:52 0° 137° (SE) 4,163 6.5 -11.3°
